WAT327 VVNB-VLLB

Flight info

Callsign WAT327
Flight time 0h 50m
Altitude 28000
Route MC3B MC DCT LAPON/N0460F280 DCT SAMDI SAMDI1C
Aircraft B738/M-SDE2E3FGHIRWXY/LB1

Departure

Time 2026-05-05 00:44
Airport Noi Bai International Airport (VVNB)

Arrival

Time 2026-05-05 01:34
Airport Luang Phabang International Airport (VLLB)
Time Latitude Longitude Altitude Speed Heading
2026-05-05 00:27 21.21375 105.80791 49 ft 0 kts 109°
2026-05-05 00:38 21.21372 105.80800 49 ft 5 kts 105°
2026-05-05 00:38 21.21387 105.80840 49 ft 6 kts 37°
2026-05-05 00:38 21.21430 105.80854 48 ft 10 kts 15°
2026-05-05 00:39 21.21532 105.80872 49 ft 17 kts 345°
2026-05-05 00:39 21.21591 105.80776 47 ft 16 kts 288°
2026-05-05 00:39 21.21626 105.80657 49 ft 18 kts 286°
2026-05-05 00:39 21.21663 105.80524 49 ft 19 kts 287°
2026-05-05 00:40 21.21704 105.80384 49 ft 20 kts 287°
2026-05-05 00:40 21.21743 105.80242 50 ft 20 kts 286°
2026-05-05 00:40 21.21786 105.80096 49 ft 22 kts 287°
2026-05-05 00:40 21.21829 105.79944 49 ft 21 kts 285°
2026-05-05 00:41 21.21865 105.79794 49 ft 21 kts 284°
2026-05-05 00:41 21.21909 105.79639 46 ft 22 kts 290°
2026-05-05 00:41 21.21952 105.79485 50 ft 21 kts 287°
2026-05-05 00:41 21.21994 105.79336 48 ft 21 kts 286°
2026-05-05 00:42 21.22046 105.79163 50 ft 27 kts 284°
2026-05-05 00:42 21.22091 105.78973 50 ft 25 kts 286°
2026-05-05 00:42 21.22140 105.78797 48 ft 24 kts 286°
2026-05-05 00:42 21.22234 105.78661 49 ft 23 kts 311°
2026-05-05 00:43 21.22369 105.78614 47 ft 22 kts 18°
2026-05-05 00:43 21.22454 105.78703 49 ft 17 kts 107°
2026-05-05 00:43 21.22383 105.78947 50 ft 69 kts 107°
2026-05-05 00:43 21.22165 105.79702 46 ft 140 kts 107°
2026-05-05 00:44 21.21844 105.80866 373 ft 173 kts 106°
2026-05-05 00:44 21.21492 105.82111 1278 ft 174 kts 107°
2026-05-05 00:44 21.21130 105.83383 2045 ft 188 kts 108°
2026-05-05 00:44 21.20717 105.84840 2397 ft 220 kts 107°
2026-05-05 00:45 21.20253 105.86492 2857 ft 239 kts 107°
2026-05-05 00:45 21.19751 105.88290 3317 ft 261 kts 107°
2026-05-05 00:45 21.19226 105.90179 4220 ft 266 kts 107°
2026-05-05 00:45 21.18693 105.92097 5138 ft 272 kts 107°
2026-05-05 00:46 21.18147 105.94062 5948 ft 279 kts 106°
2026-05-05 00:46 21.17931 105.96117 6772 ft 284 kts 82°
2026-05-05 00:46 21.18423 105.97885 7504 ft 287 kts 62°
2026-05-05 00:46 21.19542 105.99660 8319 ft 290 kts 45°
2026-05-05 00:47 21.21226 106.00808 9139 ft 290 kts 17°
2026-05-05 00:47 21.23159 106.01438 10008 ft 292 kts 14°
2026-05-05 00:47 21.25160 106.02062 10484 ft 311 kts 14°
2026-05-05 00:47 21.27331 106.02698 10655 ft 335 kts
2026-05-05 00:48 21.29703 106.02602 10866 ft 350 kts 342°
2026-05-05 00:48 21.31859 106.01384 11425 ft 354 kts 317°
2026-05-05 00:48 21.33310 105.99281 12146 ft 354 kts 293°
2026-05-05 00:48 21.34110 105.96780 12917 ft 356 kts 287°
2026-05-05 00:49 21.34820 105.94224 13593 ft 360 kts 286°
2026-05-05 00:49 21.35530 105.91635 14236 ft 364 kts 287°
2026-05-05 00:49 21.36261 105.89029 14856 ft 366 kts 287°
2026-05-05 00:49 21.37014 105.86409 15504 ft 369 kts 287°
2026-05-05 00:50 21.37781 105.83776 16131 ft 371 kts 287°
2026-05-05 00:50 21.38556 105.81122 16723 ft 374 kts 287°
2026-05-05 00:50 21.39338 105.78452 17302 ft 377 kts 287°
2026-05-05 00:50 21.40129 105.75755 17878 ft 380 kts 287°
2026-05-05 00:51 21.40923 105.73044 18407 ft 383 kts 287°
2026-05-05 00:51 21.41397 105.70226 18864 ft 387 kts 271°
2026-05-05 00:51 21.41073 105.67363 19399 ft 389 kts 256°
2026-05-05 00:51 21.40179 105.64609 19926 ft 392 kts 251°
2026-05-05 00:52 21.39184 105.61873 20364 ft 396 kts 250°
2026-05-05 00:52 21.38157 105.59112 20791 ft 400 kts 250°
2026-05-05 00:52 21.37127 105.56336 21260 ft 401 kts 250°
2026-05-05 00:52 21.36103 105.53546 21724 ft 403 kts 251°
2026-05-05 00:53 21.35224 105.51129 22113 ft 405 kts 251°
2026-05-05 00:53 21.34205 105.48306 22539 ft 407 kts 251°
2026-05-05 00:53 21.33183 105.45461 22954 ft 409 kts 251°
2026-05-05 00:53 21.32156 105.42601 23369 ft 412 kts 251°
2026-05-05 00:54 21.31126 105.39730 23738 ft 414 kts 251°
2026-05-05 00:54 21.30089 105.36839 24080 ft 415 kts 251°
2026-05-05 00:54 21.29048 105.33941 24429 ft 417 kts 251°
2026-05-05 00:54 21.28002 105.31033 24772 ft 418 kts 251°
2026-05-05 00:55 21.26955 105.28121 25091 ft 420 kts 251°
2026-05-05 00:55 21.25900 105.25190 25381 ft 422 kts 251°
2026-05-05 00:55 21.24839 105.22245 25704 ft 424 kts 251°
2026-05-05 00:55 21.23775 105.19291 26050 ft 426 kts 251°
2026-05-05 00:56 21.22705 105.16325 26363 ft 427 kts 251°
2026-05-05 00:56 21.21632 105.13356 26664 ft 428 kts 250°
2026-05-05 00:56 21.20244 105.10514 26914 ft 436 kts 236°
2026-05-05 00:56 21.18208 105.08078 27231 ft 441 kts 229°
2026-05-05 00:57 21.16027 105.05748 27522 ft 443 kts 229°
2026-05-05 00:57 21.13827 105.03427 27778 ft 445 kts 229°
2026-05-05 00:57 21.11618 105.01090 27983 ft 447 kts 229°
2026-05-05 00:58 21.07199 104.96360 28037 ft 450 kts 229°
2026-05-05 00:58 21.02798 104.91606 28050 ft 448 kts 229°
2026-05-05 00:59 20.98420 104.86866 28054 ft 447 kts 229°
2026-05-05 00:59 20.94047 104.82138 28063 ft 447 kts 229°
2026-05-05 01:00 20.89675 104.77416 28055 ft 447 kts 229°
2026-05-05 01:00 20.85300 104.72696 28062 ft 447 kts 229°
2026-05-05 01:01 20.81758 104.67393 28071 ft 436 kts 251°
2026-05-05 01:01 20.79710 104.61280 28053 ft 437 kts 253°
2026-05-05 01:02 20.77654 104.55148 28055 ft 439 kts 252°
2026-05-05 01:02 20.75529 104.49014 28048 ft 440 kts 252°
2026-05-05 01:03 20.73370 104.42884 28053 ft 442 kts 251°
2026-05-05 01:03 20.71177 104.36754 28055 ft 442 kts 251°
2026-05-05 01:04 20.68984 104.30631 28055 ft 442 kts 251°
2026-05-05 01:04 20.65700 104.21457 28050 ft 440 kts 251°
2026-05-05 01:05 20.63512 104.15344 28054 ft 441 kts 251°
2026-05-05 01:05 20.61322 104.09235 28068 ft 440 kts 251°
2026-05-05 01:06 20.59129 104.03128 28052 ft 440 kts 251°
2026-05-05 01:06 20.56935 103.97024 28066 ft 441 kts 251°
2026-05-05 01:07 20.54737 103.90915 28066 ft 441 kts 250°
2026-05-05 01:07 20.52532 103.84796 28070 ft 442 kts 250°
2026-05-05 01:08 20.50696 103.79707 28065 ft 443 kts 250°
2026-05-05 01:08 20.48481 103.73576 28068 ft 442 kts 250°
2026-05-05 01:09 20.46267 103.67453 28072 ft 443 kts 250°
2026-05-05 01:09 20.44047 103.61320 28058 ft 443 kts 250°
2026-05-05 01:10 20.41828 103.55200 28068 ft 443 kts 250°
2026-05-05 01:10 20.39606 103.49080 28059 ft 443 kts 250°
2026-05-05 01:11 20.37382 103.42961 28062 ft 443 kts 250°
2026-05-05 01:11 20.35155 103.36840 28056 ft 443 kts 250°
2026-05-05 01:12 20.32929 103.30730 28049 ft 442 kts 250°
2026-05-05 01:12 20.30699 103.24616 28045 ft 443 kts 250°
2026-05-05 01:13 20.28466 103.18506 28038 ft 443 kts 250°
2026-05-05 01:13 20.26226 103.12378 28040 ft 445 kts 250°
2026-05-05 01:14 20.23973 103.06224 28039 ft 447 kts 249°
2026-05-05 01:14 20.22839 103.03131 27866 ft 449 kts 250°
2026-05-05 01:14 20.21705 103.00039 27365 ft 446 kts 249°
2026-05-05 01:15 20.20584 102.96985 26787 ft 440 kts 249°
2026-05-05 01:15 20.19476 102.93967 26213 ft 435 kts 249°
2026-05-05 01:15 20.18378 102.90980 25631 ft 431 kts 249°
2026-05-05 01:15 20.17286 102.88010 25035 ft 429 kts 249°
2026-05-05 01:16 20.16202 102.85061 24448 ft 426 kts 249°
2026-05-05 01:16 20.15124 102.82132 23860 ft 424 kts 249°
2026-05-05 01:16 20.14049 102.79212 23203 ft 422 kts 249°
2026-05-05 01:16 20.12983 102.76316 22581 ft 419 kts 249°
2026-05-05 01:17 20.11925 102.73446 21981 ft 415 kts 249°
2026-05-05 01:17 20.10876 102.70602 21411 ft 411 kts 249°
2026-05-05 01:17 20.09870 102.67765 20842 ft 407 kts 254°
2026-05-05 01:17 20.09474 102.64808 20196 ft 405 kts 271°
2026-05-05 01:18 20.09697 102.61816 19580 ft 404 kts 275°
2026-05-05 01:18 20.09987 102.58848 18990 ft 402 kts 276°
2026-05-05 01:18 20.10275 102.55899 18432 ft 400 kts 276°
2026-05-05 01:18 20.10549 102.52964 17814 ft 397 kts 275°
2026-05-05 01:19 20.10808 102.50054 17240 ft 393 kts 275°
2026-05-05 01:19 20.11057 102.47171 16680 ft 390 kts 275°
2026-05-05 01:19 20.11299 102.44312 16137 ft 386 kts 275°
2026-05-05 01:19 20.11538 102.41477 15598 ft 383 kts 275°
2026-05-05 01:20 20.11778 102.38632 15073 ft 380 kts 275°
2026-05-05 01:20 20.12012 102.35842 14540 ft 377 kts 275°
2026-05-05 01:20 20.12186 102.33063 13986 ft 376 kts 268°
2026-05-05 01:20 20.11653 102.30385 13438 ft 375 kts 249°
2026-05-05 01:21 20.10392 102.28013 12894 ft 363 kts 236°
2026-05-05 01:21 20.08941 102.25876 12379 ft 351 kts 234°
2026-05-05 01:21 20.07517 102.23818 11894 ft 340 kts 234°
2026-05-05 01:21 20.06139 102.21821 11428 ft 331 kts 234°
2026-05-05 01:22 20.04805 102.19870 11015 ft 321 kts 235°
2026-05-05 01:22 20.03537 102.18004 10892 ft 302 kts 235°
2026-05-05 01:22 20.02339 102.16234 10748 ft 287 kts 235°
2026-05-05 01:22 20.01184 102.14523 10632 ft 282 kts 235°
2026-05-05 01:23 20.00058 102.12852 10550 ft 275 kts 235°
2026-05-05 01:23 19.98946 102.11201 10395 ft 275 kts 235°
2026-05-05 01:23 19.97827 102.09541 10295 ft 275 kts 235°
2026-05-05 01:23 19.96727 102.07910 10189 ft 268 kts 235°
2026-05-05 01:24 19.95639 102.06299 10077 ft 269 kts 235°
2026-05-05 01:24 19.94541 102.04673 9815 ft 271 kts 235°
2026-05-05 01:24 19.93444 102.03048 9499 ft 269 kts 235°
2026-05-05 01:24 19.92360 102.01444 9171 ft 264 kts 235°
2026-05-05 01:25 19.91303 101.99878 8866 ft 258 kts 234°
2026-05-05 01:25 19.90265 101.98340 8572 ft 254 kts 234°
2026-05-05 01:25 19.89252 101.96842 8270 ft 244 kts 234°
2026-05-05 01:25 19.88284 101.95410 8016 ft 234 kts 234°
2026-05-05 01:26 19.87350 101.94027 7770 ft 227 kts 234°
2026-05-05 01:26 19.86443 101.92687 7530 ft 220 kts 233°
2026-05-05 01:26 19.85562 101.91385 7276 ft 216 kts 233°
2026-05-05 01:26 19.84638 101.90141 7030 ft 215 kts 220°
2026-05-05 01:27 19.83280 101.89593 6791 ft 212 kts 178°
2026-05-05 01:27 19.81951 101.90175 6600 ft 211 kts 141°
2026-05-05 01:27 19.80876 101.91261 6438 ft 214 kts 140°
2026-05-05 01:27 19.79789 101.92304 6217 ft 207 kts 141°
2026-05-05 01:28 19.78739 101.93280 6081 ft 196 kts 147°
2026-05-05 01:28 19.77590 101.94051 5911 ft 194 kts 150°
2026-05-05 01:28 19.76457 101.94813 5718 ft 194 kts 139°
2026-05-05 01:28 19.75919 101.96117 5465 ft 202 kts 90°
2026-05-05 01:29 19.76493 101.97452 5250 ft 205 kts 46°
2026-05-05 01:29 19.77512 101.98506 5076 ft 206 kts 49°
2026-05-05 01:29 19.78463 101.99662 4833 ft 209 kts 52°
2026-05-05 01:29 19.79349 102.00857 4580 ft 201 kts 55°
2026-05-05 01:30 19.80175 102.02016 4324 ft 191 kts 55°
2026-05-05 01:30 19.80929 102.03091 4171 ft 172 kts 56°
2026-05-05 01:30 19.81609 102.04086 3979 ft 164 kts 57°
2026-05-05 01:30 19.82269 102.05070 3807 ft 163 kts 56°
2026-05-05 01:31 19.82925 102.06048 3656 ft 163 kts 56°
2026-05-05 01:31 19.83585 102.07038 3408 ft 164 kts 56°
2026-05-05 01:31 19.84237 102.08022 3151 ft 161 kts 55°
2026-05-05 01:31 19.84869 102.08989 2887 ft 158 kts 59°
2026-05-05 01:32 19.85389 102.10021 2602 ft 158 kts 63°
2026-05-05 01:32 19.85959 102.11012 2312 ft 155 kts 55°
2026-05-05 01:32 19.86590 102.11929 2054 ft 154 kts 51°
2026-05-05 01:32 19.87269 102.12807 1824 ft 154 kts 50°
2026-05-05 01:33 19.87967 102.13664 1604 ft 154 kts 48°
2026-05-05 01:33 19.88682 102.14516 1370 ft 155 kts 49°
2026-05-05 01:33 19.89383 102.15392 1115 ft 156 kts 50°
2026-05-05 01:33 19.90073 102.16245 964 ft 144 kts 49°
2026-05-05 01:34 19.90577 102.16859 969 ft 70 kts 49°
2026-05-05 01:34 19.90711 102.17048 968 ft 12 kts 51°
2026-05-05 01:34 19.90748 102.17061 965 ft 3 kts 298°
2026-05-05 01:34 19.90720 102.17022 967 ft 16 kts 226°
2026-05-05 01:35 19.90593 102.16881 971 ft 31 kts 229°
2026-05-05 01:35 19.90551 102.16829 969 ft 15 kts 230°
2026-05-05 01:35 19.90494 102.16769 970 ft 16 kts 200°
2026-05-05 01:35 19.90402 102.16822 968 ft 15 kts 140°
2026-05-05 01:36 19.90313 102.16844 969 ft 15 kts 218°
2026-05-05 01:36 19.90245 102.16766 969 ft 13 kts 228°
2026-05-05 01:36 19.90212 102.16748 970 ft 2 kts 157°
2026-05-05 01:36 19.90195 102.16756 967 ft 4 kts 152°
2026-05-05 01:37 19.90182 102.16769 970 ft 0 kts 135°